Time,TemperatureF,DewpointF,PressureIn,WindDirection,WindDirectionDegrees,WindSpeedMPH,WindSpeedGustMPH,Humidity,HourlyPrecipIn,Conditions,Clouds,dailyrainin,SoftwareType,DateUTC
2013-01-23 00:04:00,14.0,-7.0,30.37,NW,306,1.0,-999.0,38,-99.99,,,0.00,weatherlink.com 1.10,2013-01-23 05:04:00,
2013-01-23 00:19:00,14.0,-7.0,30.36,NW,320,1.0,-999.0,38,-99.99,,,0.00,weatherlink.com 1.10,2013-01-23 05:19:00,
2013-01-23 00:34:00,13.8,-8.0,30.36,WNW,286,2.0,-999.0,37,-99.99,,,0.00,weatherlink.com 1.10,2013-01-23 05:34:00,
2013-01-23 00:49:00,14.0,-7.0,30.36,West,277,1.0,-999.0,39,-99.99,,,0.00,weatherlink.com 1.10,2013-01-23 05:49:00,
2013-01-23 01:04:00,14.0,-7.0,30.36,WNW,294,3.0,-999.0,38,-99.99,,,0.00,weatherlink.com 1.10,2013-01-23 06:04:00,
2013-01-23 01:19:00,14.0,-8.0,30.36,WNW,292,6.0,-999.0,37,-99.99,,,0.00,weatherlink.com 1.10,2013-01-23 06:19:00,
2013-01-23 01:34:00,14.0,-9.0,30.36,West,273,2.0,-999.0,36,-99.99,,,0.00,weatherlink.com 1.10,2013-01-23 06:34:00,
2013-01-23 01:49:00,13.6,-9.0,30.37,WNW,282,5.0,-999.0,35,-99.99,,,0.00,weatherlink.com 1.10,2013-01-23 06:49:00,
2013-01-23 02:04:00,13.5,-8.0,30.37,WNW,296,1.0,-999.0,37,-99.99,,,0.00,weatherlink.com 1.10,2013-01-23 07:04:00,
2013-01-23 02:19:00,13.3,-8.0,30.37,West,275,6.0,-999.0,39,-99.99,,,0.00,weatherlink.com 1.10,2013-01-23 07:19:00,
2013-01-23 02:35:00,12.9,-9.0,30.37,NW,311,1.0,-999.0,37,-99.99,,,0.00,weatherlink.com 1.10,2013-01-23 07:35:00,
2013-01-23 02:50:00,13.1,-9.0,30.39,WSW,255,2.0,-999.0,37,-99.99,,,0.00,weatherlink.com 1.10,2013-01-23 07:50:00,
2013-01-23 03:05:00,13.3,-8.0,30.39,NW,315,3.0,-999.0,38,-99.99,,,0.00,weatherlink.com 1.10,2013-01-23 08:05:00,
2013-01-23 03:20:00,13.5,-6.0,30.39,WNW,298,2.0,-999.0,41,-99.99,,,0.00,weatherlink.com 1.10,2013-01-23 08:20:00,
2013-01-23 03:35:00,13.3,-5.0,30.39,WNW,296,5.0,-999.0,44,-99.99,,,0.00,weatherlink.com 1.10,2013-01-23 08:35:00,
2013-01-23 03:50:00,13.3,-5.0,30.39,NW,312,3.0,-999.0,44,-99.99,,,0.00,weatherlink.com 1.10,2013-01-23 08:50:00,
2013-01-23 04:20:00,13.1,-4.0,30.39,NW,311,4.0,-999.0,46,-99.99,,,0.00,weatherlink.com 1.10,2013-01-23 09:20:00,
2013-01-23 04:35:00,13.1,-4.0,30.39,WSW,252,2.0,-999.0,47,-99.99,,,0.00,weatherlink.com 1.10,2013-01-23 09:35:00,
2013-01-23 04:50:00,13.1,-3.0,30.39,WNW,284,3.0,-999.0,48,-99.99,,,0.00,weatherlink.com 1.10,2013-01-23 09:50:00,
2013-01-23 05:05:00,13.3,-3.0,30.39,WSW,257,3.0,-999.0,49,-99.99,,,0.00,weatherlink.com 1.10,2013-01-23 10:05:00,
2013-01-23 05:20:00,13.3,-3.0,30.40,West,274,7.0,-999.0,48,-99.99,,,0.00,weatherlink.com 1.10,2013-01-23 10:20:00,
2013-01-23 05:35:00,13.3,-2.0,30.41,WNW,299,2.0,-999.0,50,-99.99,,,0.00,weatherlink.com 1.10,2013-01-23 10:35:00,
2013-01-23 05:51:00,13.1,-2.0,30.41,West,274,4.0,-999.0,51,-99.99,,,0.00,weatherlink.com 1.10,2013-01-23 10:51:00,
2013-01-23 06:06:00,12.9,-1.0,30.42,West,281,4.0,-999.0,55,-99.99,,,0.00,weatherlink.com 1.10,2013-01-23 11:06:00,
2013-01-23 06:21:00,13.1,-2.0,30.42,West,275,2.0,-999.0,52,-99.99,,,0.00,weatherlink.com 1.10,2013-01-23 11:21:00,
2013-01-23 06:36:00,12.9,-1.0,30.41,WSW,242,0.0,-999.0,53,-99.99,,,0.00,weatherlink.com 1.10,2013-01-23 11:36:00,
2013-01-23 06:51:00,12.9,-1.0,30.42,WNW,294,1.0,-999.0,54,-99.99,,,0.00,weatherlink.com 1.10,2013-01-23 11:51:00,
2013-01-23 07:21:00,12.9,-1.0,30.43,West,269,0.0,-999.0,55,-99.99,,,0.00,weatherlink.com 1.10,2013-01-23 12:21:00,
2013-01-23 07:36:00,13.1,-1.0,30.43,West,269,3.0,-999.0,54,-99.99,,,0.00,weatherlink.com 1.10,2013-01-23 12:36:00,
2013-01-23 07:51:00,13.5,0.0,30.43,NW,313,4.0,-999.0,56,-99.99,,,0.00,weatherlink.com 1.10,2013-01-23 12:51:00,
2013-01-23 08:06:00,13.6,1.0,30.43,WSW,255,1.0,-999.0,57,-99.99,,,0.00,weatherlink.com 1.10,2013-01-23 13:06:00,
2013-01-23 08:21:00,14.1,2.0,30.44,WNW,298,4.0,-999.0,59,-99.99,,,0.00,weatherlink.com 1.10,2013-01-23 13:21:00,
2013-01-23 08:36:00,14.8,3.0,30.44,WSW,242,3.0,-999.0,60,-99.99,,,0.00,weatherlink.com 1.10,2013-01-23 13:36:00,
2013-01-23 08:51:00,15.1,3.0,30.44,WSW,256,3.0,-999.0,60,-99.99,,,0.00,weatherlink.com 1.10,2013-01-23 13:51:00,
2013-01-23 09:06:00,15.7,5.0,30.44,West,259,3.0,-999.0,63,-99.99,,,0.00,weatherlink.com 1.10,2013-01-23 14:06:00,
2013-01-23 09:22:00,16.1,6.0,30.44,West,275,7.0,-999.0,64,-99.99,,,0.00,weatherlink.com 1.10,2013-01-23 14:22:00,
2013-01-23 09:37:00,16.5,6.0,30.45,NW,305,1.0,-999.0,63,-99.99,,,0.00,weatherlink.com 1.10,2013-01-23 14:37:00,
2013-01-23 09:52:00,17.3,7.0,30.45,WNW,286,2.0,-999.0,65,-99.99,,,0.00,weatherlink.com 1.10,2013-01-23 14:52:00,
2013-01-23 10:07:00,18.0,7.0,30.44,WSW,254,10.0,-999.0,63,-99.99,,,0.00,weatherlink.com 1.10,2013-01-23 15:07:00,
2013-01-23 10:22:00,18.4,8.0,30.44,West,269,2.0,-999.0,64,-99.99,,,0.00,weatherlink.com 1.10,2013-01-23 15:22:00,
2013-01-23 10:37:00,18.9,8.0,30.45,West,277,3.0,-999.0,63,-99.99,,,0.00,weatherlink.com 1.10,2013-01-23 15:37:00,
2013-01-23 10:52:00,19.5,9.0,30.45,West,273,3.0,-999.0,64,-99.99,,,0.00,weatherlink.com 1.10,2013-01-23 15:52:00,
2013-01-23 11:07:00,20.3,10.0,30.43,WNW,298,5.0,-999.0,64,-99.99,,,0.00,weatherlink.com 1.10,2013-01-23 16:07:00,
2013-01-23 11:22:00,21.3,10.0,30.43,WNW,296,6.0,-999.0,63,-99.99,,,0.00,weatherlink.com 1.10,2013-01-23 16:22:00,
2013-01-23 11:37:00,21.8,10.0,30.42,West,281,2.0,-999.0,61,-99.99,,,0.00,weatherlink.com 1.10,2013-01-23 16:37:00,
2013-01-23 11:52:00,22.4,11.0,30.41,West,276,6.0,-999.0,61,-99.99,,,0.00,weatherlink.com 1.10,2013-01-23 16:52:00,
2013-01-23 12:07:00,23.0,12.0,30.40,WNW,292,7.0,-999.0,62,-99.99,,,0.00,weatherlink.com 1.10,2013-01-23 17:07:00,
2013-01-23 12:37:00,25.1,11.0,30.38,SW,220,2.0,-999.0,56,-99.99,,,0.00,weatherlink.com 1.10,2013-01-23 17:37:00,
2013-01-23 12:53:00,25.4,12.0,30.35,West,277,3.0,-999.0,57,-99.99,,,0.00,weatherlink.com 1.10,2013-01-23 17:53:00,
2013-01-23 13:08:00,26.3,12.0,30.35,SSW,212,2.0,-999.0,55,-99.99,,,0.00,weatherlink.com 1.10,2013-01-23 18:08:00,
2013-01-23 13:23:00,27.3,13.0,30.34,WNW,286,0.0,-999.0,54,-99.99,,,0.00,weatherlink.com 1.10,2013-01-23 18:23:00,
2013-01-23 13:38:00,27.3,13.0,30.32,WSW,250,2.0,-999.0,55,-99.99,,,0.00,weatherlink.com 1.10,2013-01-23 18:38:00,
2013-01-23 13:53:00,27.5,14.0,30.33,WSW,255,2.0,-999.0,57,-99.99,,,0.00,weatherlink.com 1.10,2013-01-23 18:53:00,
2013-01-23 14:08:00,27.8,14.0,30.32,West,275,1.0,-999.0,57,-99.99,,,0.00,weatherlink.com 1.10,2013-01-23 19:08:00,
2013-01-23 14:23:00,27.9,14.0,30.31,WNW,288,8.0,-999.0,57,-99.99,,,0.00,weatherlink.com 1.10,2013-01-23 19:23:00,
2013-01-23 14:38:00,28.2,14.0,30.31,NW,309,9.0,-999.0,56,-99.99,,,0.00,weatherlink.com 1.10,2013-01-23 19:38:00,
2013-01-23 14:53:00,29.3,14.0,30.31,West,281,1.0,-999.0,54,-99.99,,,0.00,weatherlink.com 1.10,2013-01-23 19:53:00,
2013-01-23 15:08:00,29.3,15.0,30.30,WNW,294,0.0,-999.0,55,-99.99,,,0.00,weatherlink.com 1.10,2013-01-23 20:08:00,
2013-01-23 15:23:00,29.8,14.0,30.29,WNW,286,3.0,-999.0,53,-99.99,,,0.00,weatherlink.com 1.10,2013-01-23 20:23:00,
2013-01-23 15:38:00,30.0,15.0,30.30,WNW,302,9.0,-999.0,53,-99.99,,,0.00,weatherlink.com 1.10,2013-01-23 20:38:00,
2013-01-23 15:53:00,29.7,15.0,30.30,WNW,282,6.0,-999.0,55,-99.99,,,0.00,weatherlink.com 1.10,2013-01-23 20:53:00,
2013-01-23 16:08:00,29.5,15.0,30.30,WNW,284,4.0,-999.0,54,-99.99,,,0.00,weatherlink.com 1.10,2013-01-23 21:08:00,
2013-01-23 16:24:00,29.7,15.0,30.30,SW,222,4.0,-999.0,54,-99.99,,,0.00,weatherlink.com 1.10,2013-01-23 21:24:00,
2013-01-23 16:39:00,29.1,16.0,30.30,West,275,3.0,-999.0,58,-99.99,,,0.00,weatherlink.com 1.10,2013-01-23 21:39:00,
2013-01-23 16:54:00,29.1,16.0,30.29,SW,222,1.0,-999.0,58,-99.99,,,0.00,weatherlink.com 1.10,2013-01-23 21:54:00,
2013-01-23 17:09:00,29.0,17.0,30.29,WSW,256,5.0,-999.0,60,-99.99,,,0.00,weatherlink.com 1.10,2013-01-23 22:09:00,
2013-01-23 17:24:00,28.4,16.0,30.29,West,260,0.0,-999.0,61,-99.99,,,0.00,weatherlink.com 1.10,2013-01-23 22:24:00,
2013-01-23 17:39:00,28.2,16.0,30.30,WNW,297,1.0,-999.0,61,-99.99,,,0.00,weatherlink.com 1.10,2013-01-23 22:39:00,
2013-01-23 17:54:00,27.8,16.0,30.30,West,259,2.0,-999.0,62,-99.99,,,0.00,weatherlink.com 1.10,2013-01-23 22:54:00,
2013-01-23 18:09:00,27.3,16.0,30.29,West,269,0.0,-999.0,63,-99.99,,,0.00,weatherlink.com 1.10,2013-01-23 23:09:00,
2013-01-23 18:24:00,26.9,17.0,30.29,SSE,161,0.0,-999.0,65,-99.99,,,0.00,weatherlink.com 1.10,2013-01-23 23:24:00,
2013-01-23 18:39:00,26.7,17.0,30.29,SSE,161,0.0,-999.0,66,-99.99,,,0.00,weatherlink.com 1.10,2013-01-23 23:39:00,
2013-01-23 18:54:00,26.9,17.0,30.28,SSW,194,0.0,-999.0,67,-99.99,,,0.00,weatherlink.com 1.10,2013-01-23 23:54:00,
2013-01-23 19:09:00,27.5,17.0,30.28,South,183,5.0,-999.0,66,-99.99,,,0.00,weatherlink.com 1.10,2013-01-24 00:09:00,
2013-01-23 19:24:00,28.4,18.0,30.28,SW,221,4.0,-999.0,65,-99.99,,,0.00,weatherlink.com 1.10,2013-01-24 00:24:00,
2013-01-23 19:40:00,29.0,18.0,30.27,WSW,240,4.0,-999.0,64,-99.99,,,0.00,weatherlink.com 1.10,2013-01-24 00:40:00,
2013-01-23 19:55:00,29.1,18.0,30.27,SE,138,1.0,-999.0,64,-99.99,,,0.00,weatherlink.com 1.10,2013-01-24 00:55:00,
2013-01-23 20:10:00,28.8,18.0,30.25,SSW,194,3.0,-999.0,64,-99.99,,,0.00,weatherlink.com 1.10,2013-01-24 01:10:00,
2013-01-23 20:25:00,29.0,18.0,30.25,SW,223,0.0,-999.0,64,-99.99,,,0.00,weatherlink.com 1.10,2013-01-24 01:25:00,
2013-01-23 20:40:00,29.1,18.0,30.25,SW,218,4.0,-999.0,63,-99.99,,,0.00,weatherlink.com 1.10,2013-01-24 01:40:00,
2013-01-23 20:55:00,29.7,18.0,30.25,West,271,1.0,-999.0,62,-99.99,,,0.00,weatherlink.com 1.10,2013-01-24 01:55:00,
2013-01-23 21:10:00,30.0,18.0,30.23,West,263,2.0,-999.0,61,-99.99,,,0.00,weatherlink.com 1.10,2013-01-24 02:10:00,
2013-01-23 21:25:00,30.1,18.0,30.22,West,275,2.0,-999.0,62,-99.99,,,0.00,weatherlink.com 1.10,2013-01-24 02:25:00,
2013-01-23 21:40:00,30.1,19.0,30.21,SW,236,7.0,-999.0,63,-99.99,,,0.00,weatherlink.com 1.10,2013-01-24 02:40:00,
2013-01-23 21:55:00,30.3,19.0,30.20,NW,306,6.0,-999.0,64,-99.99,,,0.00,weatherlink.com 1.10,2013-01-24 02:55:00,
2013-01-23 22:10:00,30.4,19.0,30.19,West,260,2.0,-999.0,64,-99.99,,,0.00,weatherlink.com 1.10,2013-01-24 03:10:00,
2013-01-23 22:25:00,30.7,20.0,30.19,West,270,7.0,-999.0,64,-99.99,,,0.00,weatherlink.com 1.10,2013-01-24 03:25:00,
2013-01-23 22:40:00,30.7,21.0,30.16,WNW,296,11.0,-999.0,66,-99.99,,,0.00,weatherlink.com 1.10,2013-01-24 03:40:00,
2013-01-23 22:55:00,30.6,21.0,30.16,WSW,258,8.0,-999.0,67,-99.99,,,0.00,weatherlink.com 1.10,2013-01-24 03:55:00,
2013-01-23 23:11:00,30.4,21.0,30.16,WNW,284,14.0,-999.0,69,-99.99,,,0.00,weatherlink.com 1.10,2013-01-24 04:11:00,
2013-01-23 23:26:00,30.6,22.0,30.15,NW,317,6.0,-999.0,69,-99.99,,,0.00,weatherlink.com 1.10,2013-01-24 04:26:00,
2013-01-23 23:41:00,31.0,22.0,30.12,SW,236,9.0,-999.0,70,-99.99,,,0.00,weatherlink.com 1.10,2013-01-24 04:41:00,
2013-01-23 23:56:00,31.8,23.0,30.11,West,276,20.0,-999.0,70,-99.99,,,0.00,weatherlink.com 1.10,2013-01-24 04:56:00,